| time (UTC) | temp F | wind direction | speed MPH | gust MPH | rain 1hr in | rain 24hr in | rain mn in | humidity % | barometer mb |
| 20260504035411 | 55 | 200 | 0.0 | 0.0 | 0.00 | 0.00 | 0.00 | 84 | 1018.8 |
| 20260504034908 | 55 | 200 | 0.0 | 0.0 | 0.00 | 0.00 | 0.00 | 84 | 1018.6 |
| 20260504034405 | 55 | 199 | 0.0 | 0.0 | 0.00 | 0.00 | 0.00 | 84 | 1018.4 |
| 20260504033902 | 55 | 200 | 0.0 | 0.0 | 0.00 | 0.00 | 0.00 | 83 | 1018.5 |
| 20260504033400 | 56 | 200 | 0.0 | 0.0 | 0.00 | 0.00 | 0.00 | 83 | 1018.6 |
| 20260504032856 | 56 | 200 | 0.0 | 1.0 | 0.00 | 0.00 | 0.00 | 82 | 1018.8 |
| 20260504032353 | 56 | 200 | 0.0 | 0.0 | 0.00 | 0.00 | 0.00 | 82 | 1018.6 |
| 20260504031850 | 57 | 200 | 0.0 | 0.0 | 0.00 | 0.00 | 0.00 | 82 | 1018.9 |
| 20260504031347 | 57 | 200 | 0.0 | 0.0 | 0.00 | 0.00 | 0.00 | 82 | 1018.7 |
| 20260504030843 | 57 | 200 | 0.0 | 0.0 | 0.00 | 0.00 | 0.00 | 81 | 1018.5 |
| 20260504030341 | 58 | 200 | 0.0 | 0.0 | 0.00 | 0.00 | 0.00 | 81 | 1018.7 |
| 20260504025837 | 58 | 199 | 0.0 | 0.0 | 0.00 | 0.00 | 0.00 | 77 | 1018.7 |
| 20260504025334 | 59 | 199 | 0.0 | 0.0 | 0.00 | 0.00 | 0.00 | 75 | 1018.7 |
| 20260504024831 | 58 | 199 | 0.0 | 0.0 | 0.00 | 0.00 | 0.00 | 75 | 1018.7 |
| 20260504024327 | 58 | 199 | 0.0 | 0.0 | 0.00 | 0.00 | 0.00 | 75 | 1018.5 |
| 20260504023824 | 59 | 199 | 0.0 | 1.0 | 0.00 | 0.00 | 0.00 | 77 | 1018.5 |
| 20260504023321 | 59 | 199 | 0.0 | 0.0 | 0.00 | 0.00 | 0.00 | 76 | 1018.5 |
| 20260504022816 | 59 | 199 | 0.0 | 0.0 | 0.00 | 0.00 | 0.00 | 73 | 1018.5 |
| 20260504022314 | 59 | 199 | 0.0 | 0.0 | 0.00 | 0.00 | 0.00 | 72 | 1018.5 |
| 20260504021810 | 59 | 199 | 1.0 | 1.0 | 0.00 | 0.00 | 0.00 | 71 | 1018.5 |
| 20260504021308 | 60 | 196 | 2.0 | 3.0 | 0.00 | 0.00 | 0.00 | 73 | 1018.2 |
| 20260504020804 | 60 | 196 | 0.0 | 0.0 | 0.00 | 0.00 | 0.00 | 76 | 1018.2 |
| 20260504020301 | 61 | 197 | 0.0 | 0.0 | 0.00 | 0.00 | 0.00 | 72 | 1018.0 |
| 20260504015757 | 61 | 196 | 1.0 | 1.0 | 0.00 | 0.00 | 0.00 | 73 | 1018.2 |
| 20260504015253 | 61 | 197 | 0.0 | 0.0 | 0.00 | 0.00 | 0.00 | 70 | 1018.2 |
| 20260504014749 | 61 | 196 | 0.0 | 0.0 | 0.00 | 0.00 | 0.00 | 65 | 1018.2 |
| 20260504014246 | 62 | 196 | 1.0 | 1.0 | 0.00 | 0.00 | 0.00 | 64 | 1018.0 |
| 20260504013744 | 62 | 196 | 1.0 | 1.0 | 0.00 | 0.00 | 0.00 | 62 | 1017.9 |
| 20260504013241 | 62 | 196 | 0.0 | 1.0 | 0.00 | 0.00 | 0.00 | 62 | 1017.9 |
| 20260504012737 | 62 | 196 | 0.0 | 0.0 | 0.00 | 0.00 | 0.00 | 62 | 1017.9 |
| 20260504012235 | 62 | 196 | 1.0 | 3.0 | 0.00 | 0.00 | 0.00 | 63 | 1018.0 |
| 20260504011732 | 62 | 199 | 1.0 | 1.0 | 0.00 | 0.00 | 0.00 | 66 | 1017.7 |
| 20260504011229 | 62 | 199 | 0.0 | 0.0 | 0.00 | 0.00 | 0.00 | 66 | 1017.6 |
| 20260504010725 | 63 | 201 | 0.0 | 0.0 | 0.00 | 0.00 | 0.00 | 59 | 1017.5 |
| 20260504010220 | 64 | 200 | 0.0 | 0.0 | 0.00 | 0.00 | 0.00 | 55 | 1017.5 |
| 20260504005717 | 65 | 200 | 0.0 | 0.0 | 0.00 | 0.00 | 0.00 | 56 | 1017.3 |
| 20260504005215 | 66 | 200 | 0.0 | 0.0 | 0.00 | 0.00 | 0.00 | 61 | 1017.6 |
| 20260504004712 | 67 | 200 | 0.0 | 0.0 | 0.00 | 0.00 | 0.00 | 53 | 1017.3 |
| 20260504004209 | 68 | 200 | 0.0 | 1.0 | 0.00 | 0.00 | 0.00 | 49 | 1017.4 |
| 20260504003706 | 69 | 200 | 0.0 | 1.0 | 0.00 | 0.00 | 0.00 | 48 | 1017.3 |
| 20260504003203 | 70 | 200 | 0.0 | 0.0 | 0.00 | 0.00 | 0.00 | 45 | 1017.4 |
| 20260504002659 | 71 | 200 | 0.0 | 0.0 | 0.00 | 0.00 | 0.00 | 44 | 1017.3 |
| 20260504002157 | 72 | 200 | 0.0 | 3.0 | 0.00 | 0.00 | 0.00 | 39 | 1017.2 |
| 20260504001655 | 72 | 202 | 1.0 | 1.0 | 0.00 | 0.00 | 0.00 | 38 | 1017.2 |
| 20260504001150 | 73 | 200 | 2.0 | 3.0 | 0.00 | 0.00 | 0.00 | 37 | 1017.2 |
| 20260504000647 | 73 | 196 | 2.0 | 3.0 | 0.00 | 0.00 | 0.00 | 37 | 1016.9 |
| 20260504000145 | 73 | 190 | 3.0 | 4.0 | 0.00 | 0.00 | 0.00 | 36 | 1017.1 |
| 20260503235643 | 74 | 196 | 2.0 | 4.0 | 0.00 | 0.00 | 0.00 | 36 | 1017.2 |
| 20260503235139 | 74 | 200 | 1.0 | 4.0 | 0.00 | 0.00 | 0.00 | 36 | 1017.1 |
| 20260503234638 | 75 | 199 | 2.0 | 5.0 | 0.00 | 0.00 | 0.00 | 34 | 1017.0 |
| 20260503234135 | 75 | 200 | 0.0 | 3.0 | 0.00 | 0.00 | 0.00 | 35 | 1017.1 |
| 20260503233632 | 75 | 191 | 4.0 | 4.0 | 0.00 | 0.00 | 0.00 | 33 | 1017.0 |
| 20260503233127 | 75 | 197 | 2.0 | 4.0 | 0.00 | 0.00 | 0.00 | 34 | 1017.2 |
| 20260503232625 | 76 | 197 | 5.0 | 8.0 | 0.00 | 0.00 | 0.00 | 32 | 1017.1 |
| 20260503232122 | 76 | 207 | 2.0 | 7.0 | 0.00 | 0.00 | 0.00 | 32 | 1017.1 |
| 20260503231620 | 76 | 198 | 2.0 | 5.0 | 0.00 | 0.00 | 0.00 | 32 | 1017.1 |
| 20260503231116 | 76 | 209 | 0.0 | 3.0 | 0.00 | 0.00 | 0.00 | 32 | 1017.0 |
| 20260503230613 | 76 | 205 | 1.0 | 7.0 | 0.00 | 0.00 | 0.00 | 31 | 1017.0 |
| 20260503230110 | 76 | 197 | 2.0 | 4.0 | 0.00 | 0.00 | 0.00 | 31 | 1017.1 |
| 20260503225608 | 77 | 194 | 5.0 | 8.0 | 0.00 | 0.00 | 0.00 | 31 | 1017.0 |
| 20260503225107 | 77 | 220 | 7.0 | 8.0 | 0.00 | 0.00 | 0.00 | 30 | 1017.0 |
| 20260503224605 | 77 | 190 | 8.0 | 11.0 | 0.00 | 0.00 | 0.00 | 30 | 1017.1 |
| 20260503224103 | 77 | 186 | 9.0 | 12.0 | 0.00 | 0.00 | 0.00 | 30 | 1017.1 |
| 20260503223601 | 77 | 200 | 6.0 | 8.0 | 0.00 | 0.00 | 0.00 | 30 | 1016.8 |
| 20260503223056 | 77 | 192 | 3.0 | 7.0 | 0.00 | 0.00 | 0.00 | 30 | 1016.7 |
| 20260503222554 | 78 | 232 | 2.0 | 4.0 | 0.00 | 0.00 | 0.00 | 29 | 1017.0 |
| 20260503222052 | 78 | 201 | 6.0 | 8.0 | 0.00 | 0.00 | 0.00 | 28 | 1016.9 |
| 20260503221550 | 78 | 198 | 3.0 | 10.0 | 0.00 | 0.00 | 0.00 | 29 | 1016.9 |
| 20260503221047 | 78 | 191 | 0.0 | 1.0 | 0.00 | 0.00 | 0.00 | 28 | 1017.0 |
| 20260503220543 | 78 | 197 | 5.0 | 8.0 | 0.00 | 0.00 | 0.00 | 28 | 1017.1 |
| 20260503220040 | 79 | 188 | 3.0 | 10.0 | 0.00 | 0.00 | 0.00 | 28 | 1017.2 |
| 20260503215537 | 80 | 192 | 6.0 | 10.0 | 0.00 | 0.00 | 0.00 | 28 | 1017.2 |
| 20260503215034 | 81 | 193 | 3.0 | 11.0 | 0.00 | 0.00 | 0.00 | 27 | 1017.1 |
| 20260503214532 | 82 | 187 | 5.0 | 10.0 | 0.00 | 0.00 | 0.00 | 27 | 1017.3 |
| 20260503214029 | 81 | 202 | 0.0 | 3.0 | 0.00 | 0.00 | 0.00 | 28 | 1017.3 |
| 20260503213527 | 81 | 224 | 4.0 | 10.0 | 0.00 | 0.00 | 0.00 | 27 | 1017.6 |
| 20260503213024 | 80 | 191 | 4.0 | 8.0 | 0.00 | 0.00 | 0.00 | 28 | 1017.6 |
| 20260503212521 | 81 | 189 | 9.0 | 14.0 | 0.00 | 0.00 | 0.00 | 28 | 1017.3 |
| 20260503212018 | 80 | 208 | 3.0 | 8.0 | 0.00 | 0.00 | 0.00 | 27 | 1017.5 |
| 20260503211515 | 80 | 190 | 4.0 | 8.0 | 0.00 | 0.00 | 0.00 | 27 | 1017.5 |
| 20260503211011 | 81 | 207 | 9.0 | 15.0 | 0.00 | 0.00 | 0.00 | 26 | 1017.5 |
| 20260503210508 | 81 | 214 | 6.0 | 11.0 | 0.00 | 0.00 | 0.00 | 26 | 1017.5 |
| 20260503210003 | 83 | 194 | 8.0 | 11.0 | 0.00 | 0.00 | 0.00 | 26 | 1017.7 |
| 20260503205500 | 83 | 204 | 3.0 | 8.0 | 0.00 | 0.00 | 0.00 | 28 | 1017.5 |
| 20260503204956 | 82 | 184 | 6.0 | 10.0 | 0.00 | 0.00 | 0.00 | 27 | 1017.8 |
| 20260503204454 | 82 | 193 | 3.0 | 11.0 | 0.00 | 0.00 | 0.00 | 27 | 1017.7 |
| 20260503203950 | 82 | 202 | 3.0 | 7.0 | 0.00 | 0.00 | 0.00 | 27 | 1017.7 |
| 20260503203448 | 83 | 195 | 7.0 | 10.0 | 0.00 | 0.00 | 0.00 | 26 | 1017.8 |
| 20260503202944 | 83 | 198 | 2.0 | 7.0 | 0.00 | 0.00 | 0.00 | 30 | 1018.0 |
| 20260503202443 | 82 | 196 | 5.0 | 10.0 | 0.00 | 0.00 | 0.00 | 28 | 1018.0 |
| 20260503201941 | 81 | 208 | 1.0 | 5.0 | 0.00 | 0.00 | 0.00 | 27 | 1018.1 |
| 20260503201438 | 81 | 192 | 6.0 | 12.0 | 0.00 | 0.00 | 0.00 | 28 | 1018.1 |
| 20260503200935 | 82 | 210 | 10.0 | 16.0 | 0.00 | 0.00 | 0.00 | 26 | 1018.1 |
| 20260503200431 | 82 | 192 | 6.0 | 10.0 | 0.00 | 0.00 | 0.00 | 28 | 1018.0 |
| 20260503195928 | 82 | 204 | 3.0 | 7.0 | 0.00 | 0.00 | 0.00 | 26 | 1018.4 |
| 20260503195426 | 82 | 193 | 3.0 | 7.0 | 0.00 | 0.00 | 0.00 | 26 | 1018.5 |
| 20260503194922 | 82 | 198 | 1.0 | 8.0 | 0.00 | 0.00 | 0.00 | 26 | 1018.5 |
| 20260503194419 | 80 | 193 | 0.0 | 7.0 | 0.00 | 0.00 | 0.00 | 29 | 1018.8 |
| 20260503193914 | 80 | 194 | 7.0 | 15.0 | 0.00 | 0.00 | 0.00 | 27 | 1018.9 |
| 20260503193410 | 81 | 192 | 4.0 | 8.0 | 0.00 | 0.00 | 0.00 | 28 | 1018.7 |
| 20260503192906 | 81 | 199 | 2.0 | 7.0 | 0.00 | 0.00 | 0.00 | 28 | 1018.9 |
| 20260503192402 | 81 | 199 | 5.0 | 11.0 | 0.00 | 0.00 | 0.00 | 28 | 1019.1 |
| 20260503191858 | 82 | 190 | 4.0 | 11.0 | 0.00 | 0.00 | 0.00 | 29 | 1019.1 |
| 20260503191355 | 81 | 198 | 2.0 | 4.0 | 0.00 | 0.00 | 0.00 | 30 | 1019.2 |
| 20260503190852 | 81 | 225 | 3.0 | 5.0 | 0.00 | 0.00 | 0.00 | 26 | 1019.4 |
| 20260503190349 | 81 | 187 | 6.0 | 8.0 | 0.00 | 0.00 | 0.00 | 28 | 1019.4 |
| 20260503185846 | 80 | 195 | 6.0 | 10.0 | 0.00 | 0.00 | 0.00 | 25 | 1019.4 |
| 20260503185342 | 79 | 195 | 7.0 | 8.0 | 0.00 | 0.00 | 0.00 | 27 | 1019.6 |
| 20260503184842 | 79 | 200 | 5.0 | 10.0 | 0.00 | 0.00 | 0.00 | 27 | 1019.5 |
| 20260503184338 | 79 | 198 | 10.0 | 12.0 | 0.00 | 0.00 | 0.00 | 28 | 1019.7 |
| 20260503183834 | 79 | 190 | 4.0 | 8.0 | 0.00 | 0.00 | 0.00 | 28 | 1019.6 |
| 20260503183332 | 80 | 189 | 3.0 | 16.0 | 0.00 | 0.00 | 0.00 | 28 | 1019.8 |
| 20260503182829 | 81 | 174 | 6.0 | 10.0 | 0.00 | 0.00 | 0.00 | 28 | 1019.9 |
| 20260503182328 | 80 | 191 | 6.0 | 7.0 | 0.00 | 0.00 | 0.00 | 31 | 1020.0 |
| 20260503181825 | 79 | 185 | 8.0 | 12.0 | 0.00 | 0.00 | 0.00 | 29 | 1019.9 |
| 20260503181322 | 80 | 199 | 6.0 | 10.0 | 0.00 | 0.00 | 0.00 | 28 | 1019.9 |
| 20260503180818 | 80 | 198 | 3.0 | 7.0 | 0.00 | 0.00 | 0.00 | 31 | 1019.8 |
| 20260503180316 | 79 | 194 | 4.0 | 15.0 | 0.00 | 0.00 | 0.00 | 27 | 1019.8 |
| 20260503175812 | 79 | 208 | 2.0 | 14.0 | 0.00 | 0.00 | 0.00 | 31 | 1019.8 |
| 20260503175311 | 79 | 193 | 7.0 | 8.0 | 0.00 | 0.00 | 0.00 | 29 | 1020.0 |
| 20260503174806 | 79 | 201 | 3.0 | 7.0 | 0.00 | 0.00 | 0.00 | 33 | 1020.0 |
| 20260503174304 | 79 | 196 | 7.0 | 11.0 | 0.00 | 0.00 | 0.00 | 26 | 1020.0 |
| 20260503173759 | 78 | 194 | 4.0 | 8.0 | 0.00 | 0.00 | 0.00 | 28 | 1020.1 |
| 20260503173255 | 78 | 201 | 6.0 | 11.0 | 0.00 | 0.00 | 0.00 | 28 | 1020.2 |
| 20260503172752 | 78 | 195 | 3.0 | 5.0 | 0.00 | 0.00 | 0.00 | 30 | 1020.2 |
| 20260503172250 | 78 | 182 | 6.0 | 8.0 | 0.00 | 0.00 | 0.00 | 31 | 1020.3 |
| 20260503171746 | 77 | 266 | 1.0 | 7.0 | 0.00 | 0.00 | 0.00 | 31 | 1020.3 |
| 20260503171243 | 77 | 192 | 8.0 | 12.0 | 0.00 | 0.00 | 0.00 | 27 | 1020.3 |
| 20260503170740 | 77 | 199 | 5.0 | 7.0 | 0.00 | 0.00 | 0.00 | 28 | 1020.6 |
| 20260503170237 | 77 | 197 | 5.0 | 7.0 | 0.00 | 0.00 | 0.00 | 28 | 1020.6 |
| 20260503160159 | 75 | 187 | 9.0 | 14.0 | 0.00 | 0.00 | 0.00 | 31 | 1021.3 |
| 20260503150629 | 72 | 205 | 6.0 | 8.0 | 0.00 | 0.00 | 0.00 | 36 | 1021.7 |
| 20260503150125 | 71 | 207 | 4.0 | 7.0 | 0.00 | 0.00 | 0.00 | 39 | 1021.6 |
| 20260503131019 | 57 | 197 | 1.0 | 4.0 | 0.00 | 0.00 | 0.00 | 73 | 1020.6 |
| 20260503130516 | 56 | 197 | 0.0 | 1.0 | 0.00 | 0.00 | 0.00 | 78 | 1020.4 |
| 20260503110412 | 43 | 198 | 0.0 | 0.0 | 0.00 | 0.00 | 0.00 | 95 | 1020.0 |
| 20260503090309 | 44 | 199 | 0.0 | 0.0 | 0.00 | 0.00 | 0.00 | 94 | 1019.3 |
| 20260503081242 | 45 | 200 | 0.0 | 0.0 | 0.00 | 0.00 | 0.00 | 94 | 1019.0 |
| 20260503080738 | 45 | 200 | 0.0 | 0.0 | 0.00 | 0.00 | 0.00 | 93 | 1018.6 |
| 20260503080236 | 45 | 200 | 0.0 | 0.0 | 0.00 | 0.00 | 0.00 | 93 | 1018.6 |
| 20260503072712 | 46 | 200 | 0.0 | 0.0 | 0.00 | 0.00 | 0.00 | 93 | 1018.8 |
| 20260503072209 | 46 | 200 | 0.0 | 0.0 | 0.00 | 0.00 | 0.00 | 93 | 1018.8 |
| 20260503071706 | 46 | 200 | 0.0 | 0.0 | 0.00 | 0.00 | 0.00 | 92 | 1018.9 |
| 20260503071203 | 46 | 200 | 0.0 | 0.0 | 0.00 | 0.00 | 0.00 | 92 | 1018.8 |
| 20260503070659 | 46 | 200 | 0.0 | 0.0 | 0.00 | 0.00 | 0.00 | 92 | 1018.6 |
| 20260503070157 | 46 | 200 | 0.0 | 0.0 | 0.00 | 0.00 | 0.00 | 92 | 1018.5 |
| 20260503060121 | 48 | 200 | 0.0 | 0.0 | 0.00 | 0.00 | 0.00 | 90 | 1018.3 |
| 20260503055113 | 48 | 200 | 0.0 | 0.0 | 0.00 | 0.00 | 0.00 | 90 | 1018.5 |
| 20260503054609 | 48 | 201 | 0.0 | 0.0 | 0.00 | 0.00 | 0.00 | 90 | 1018.3 |
| 20260503054106 | 49 | 201 | 0.0 | 0.0 | 0.00 | 0.00 | 0.00 | 90 | 1018.4 |
| 20260503053604 | 49 | 201 | 0.0 | 0.0 | 0.00 | 0.00 | 0.00 | 90 | 1018.3 |
| 20260503053102 | 49 | 201 | 0.0 | 0.0 | 0.00 | 0.00 | 0.00 | 90 | 1018.3 |
| 20260503052558 | 49 | 201 | 0.0 | 0.0 | 0.00 | 0.00 | 0.00 | 89 | 1018.4 |
| 20260503052055 | 49 | 201 | 0.0 | 0.0 | 0.00 | 0.00 | 0.00 | 89 | 1018.3 |
| 20260503051550 | 49 | 201 | 0.0 | 0.0 | 0.00 | 0.00 | 0.00 | 89 | 1018.4 |
| 20260503051048 | 49 | 201 | 0.0 | 0.0 | 0.00 | 0.00 | 0.00 | 88 | 1018.3 |
| 20260503050543 | 50 | 201 | 0.0 | 0.0 | 0.00 | 0.00 | 0.00 | 87 | 1018.3 |
| 20260503050041 | 50 | 201 | 0.0 | 0.0 | 0.00 | 0.73 | 0.73 | 87 | 1018.2 |
| 20260503045538 | 50 | 200 | 0.0 | 0.0 | 0.00 | 0.73 | 0.73 | 87 | 1018.0 |
| 20260503045035 | 50 | 200 | 0.0 | 0.0 | 0.00 | 0.73 | 0.73 | 86 | 1018.2 |
| 20260503044532 | 50 | 200 | 0.0 | 0.0 | 0.00 | 0.73 | 0.73 | 87 | 1017.9 |
| 20260503044030 | 50 | 200 | 0.0 | 0.0 | 0.00 | 0.73 | 0.73 | 88 | 1017.9 |
| 20260503043525 | 50 | 200 | 0.0 | 0.0 | 0.00 | 0.73 | 0.73 | 88 | 1017.8 |
| 20260503043022 | 50 | 200 | 0.0 | 0.0 | 0.00 | 0.73 | 0.73 | 87 | 1018.0 |
| 20260503042519 | 51 | 200 | 0.0 | 0.0 | 0.00 | 0.73 | 0.73 | 87 | 1018.0 |
| 20260503042015 | 51 | 200 | 0.0 | 0.0 | 0.00 | 0.73 | 0.73 | 87 | 1017.9 |
| 20260503041512 | 51 | 200 | 0.0 | 0.0 | 0.00 | 0.73 | 0.73 | 86 | 1017.8 |
| 20260503041010 | 51 | 200 | 0.0 | 0.0 | 0.00 | 0.73 | 0.73 | 85 | 1017.9 |
| 20260503040508 | 51 | 200 | 0.0 | 0.0 | 0.00 | 0.73 | 0.73 | 84 | 1017.8 |
| 20260503040005 | 52 | 200 | 0.0 | 0.0 | 0.00 | 0.73 | 0.73 | 82 | 1017.6 |